| time (UTC) | temp C | wind direction | speed KPH | gust KPH | rain 1hr cm | rain 24hr cm | rain mn cm | humidity % | barometer mb |
| 20260507232506 | 18 | 298 | 3.2 | 12.9 | 0.00 | 1.98 | 1.37 | 74 | 1011.9 |
| 20260507232006 | 18 | 320 | 4.8 | 12.9 | 0.00 | 1.98 | 1.37 | 74 | 1011.9 |
| 20260507231004 | 19 | 290 | 4.8 | 14.5 | 0.00 | 1.98 | 1.37 | 73 | 1011.9 |
| 20260507230506 | 19 | 288 | 4.8 | 14.5 | 0.00 | 1.98 | 1.37 | 73 | 1011.9 |
| 20260507230005 | 19 | 284 | 4.8 | 16.1 | 0.00 | 1.98 | 1.37 | 74 | 1011.9 |
| 20260507225505 | 19 | 293 | 4.8 | 19.3 | 0.00 | 1.98 | 1.37 | 74 | 1011.9 |
| 20260507225006 | 19 | 321 | 3.2 | 19.3 | 0.00 | 1.98 | 1.37 | 75 | 1011.9 |
| 20260507224505 | 19 | 297 | 4.8 | 12.9 | 0.00 | 1.98 | 1.37 | 74 | 1011.9 |
| 20260507224006 | 19 | 277 | 3.2 | 9.7 | 0.00 | 1.98 | 1.37 | 74 | 1011.9 |
| 20260507223506 | 19 | 273 | 4.8 | 12.9 | 0.00 | 1.98 | 1.37 | 74 | 1011.9 |
| 20260507223006 | 20 | 286 | 4.8 | 19.3 | 0.00 | 1.98 | 1.37 | 74 | 1011.9 |
| 20260507222505 | 20 | 298 | 1.6 | 11.3 | 0.00 | 1.98 | 1.37 | 76 | 1011.9 |
| 20260507221505 | 20 | 297 | 3.2 | 12.9 | 0.00 | 1.98 | 1.37 | 76 | 1011.9 |
| 20260507221005 | 20 | 13 | 8.0 | 16.1 | 0.00 | 1.98 | 1.37 | 75 | 1011.9 |
| 20260507220505 | 20 | 346 | 6.4 | 12.9 | 0.00 | 1.98 | 1.37 | 75 | 1011.9 |
| 20260507220005 | 20 | 296 | 3.2 | 19.3 | 0.00 | 1.98 | 1.37 | 76 | 1011.9 |
| 20260507215506 | 20 | 307 | 4.8 | 19.3 | 0.00 | 1.98 | 1.37 | 77 | 1011.9 |
| 20260507215005 | 20 | 275 | 4.8 | 16.1 | 0.00 | 1.98 | 1.37 | 77 | 1011.9 |
| 20260507214506 | 20 | 298 | 8.0 | 16.1 | 0.00 | 1.98 | 1.37 | 77 | 1011.9 |
| 20260507214006 | 20 | 313 | 4.8 | 12.9 | 0.00 | 1.98 | 1.37 | 76 | 1011.9 |
| 20260507212504 | 20 | 242 | 6.4 | 16.1 | 0.00 | 1.98 | 1.37 | 77 | 1011.9 |
| 20260507211505 | 19 | 271 | 4.8 | 11.3 | 0.00 | 1.98 | 1.37 | 80 | 1011.9 |
| 20260507211005 | 19 | 343 | 4.8 | 12.9 | 0.00 | 1.98 | 1.37 | 79 | 1011.9 |
| 20260507210505 | 19 | 281 | 1.6 | 11.3 | 0.00 | 1.98 | 1.37 | 79 | 1011.9 |
| 20260507205504 | 19 | 310 | 3.2 | 9.7 | 0.00 | 1.98 | 1.37 | 81 | 1011.9 |
| 20260507205006 | 19 | 297 | 6.4 | 12.9 | 0.00 | 1.98 | 1.37 | 80 | 1011.9 |
| 20260507204505 | 19 | 283 | 4.8 | 11.3 | 0.00 | 1.98 | 1.37 | 81 | 1011.9 |
| 20260507204005 | 19 | 284 | 4.8 | 9.7 | 0.00 | 1.98 | 1.37 | 82 | 1011.9 |
| 20260507203506 | 18 | 26 | 4.8 | 8.0 | 0.00 | 1.98 | 1.37 | 82 | 1011.9 |
| 20260507203005 | 19 | 345 | 3.2 | 8.0 | 0.00 | 1.98 | 1.37 | 82 | 1012.0 |
| 20260507202505 | 19 | 335 | 3.2 | 11.3 | 0.00 | 1.98 | 1.37 | 82 | 1012.0 |
| 20260507202006 | 19 | 295 | 4.8 | 12.9 | 0.00 | 1.98 | 1.37 | 81 | 1012.0 |
| 20260507201505 | 19 | 273 | 4.8 | 11.3 | 0.00 | 1.98 | 1.37 | 82 | 1012.0 |
| 20260507201006 | 18 | 327 | 1.6 | 4.8 | 0.00 | 1.98 | 1.37 | 84 | 1012.0 |
| 20260507200505 | 18 | 18 | 0.0 | 4.8 | 0.00 | 1.98 | 1.37 | 85 | 1012.0 |
| 20260507200005 | 18 | 284 | 0.0 | 11.3 | 0.00 | 1.98 | 1.37 | 86 | 1012.0 |
| 20260507195504 | 18 | 319 | 4.8 | 11.3 | 0.00 | 1.98 | 1.37 | 85 | 1012.0 |
| 20260507195006 | 18 | 11 | 0.0 | 4.8 | 0.00 | 1.98 | 1.37 | 87 | 1012.0 |
| 20260507194005 | 18 | 289 | 6.4 | 14.5 | 0.00 | 1.98 | 1.37 | 86 | 1012.0 |
| 20260507193505 | 18 | 309 | 4.8 | 14.5 | 0.00 | 1.98 | 1.37 | 86 | 1012.0 |
| 20260507193005 | 17 | 289 | 3.2 | 11.3 | 0.00 | 1.98 | 1.37 | 86 | 1012.0 |
| 20260507192504 | 17 | 298 | 4.8 | 12.9 | 0.00 | 1.98 | 1.37 | 86 | 1012.0 |
| 20260507192005 | 18 | 269 | 3.2 | 9.7 | 0.00 | 1.98 | 1.37 | 88 | 1012.0 |
| 20260507191005 | 17 | 358 | 3.2 | 8.0 | 0.00 | 1.98 | 1.37 | 89 | 1012.0 |
| 20260507190505 | 17 | 332 | 3.2 | 8.0 | 0.00 | 1.98 | 1.37 | 89 | 1012.0 |
| 20260507185505 | 17 | 331 | 4.8 | 11.3 | 0.00 | 1.98 | 1.37 | 89 | 1012.0 |
| 20260507185005 | 17 | 311 | 4.8 | 16.1 | 0.00 | 1.98 | 1.37 | 88 | 1012.0 |
| 20260507184505 | 17 | 325 | 4.8 | 16.1 | 0.00 | 1.98 | 1.37 | 88 | 1012.0 |
| 20260507184005 | 17 | 353 | 3.2 | 8.0 | 0.00 | 1.98 | 1.37 | 88 | 1012.0 |
| 20260507183005 | 18 | 28 | 1.6 | 4.8 | 0.00 | 1.98 | 1.37 | 86 | 1012.0 |
| 20260507182505 | 18 | 334 | 3.2 | 11.3 | 0.00 | 1.98 | 1.37 | 86 | 1012.0 |
| 20260507182004 | 18 | 330 | 1.6 | 4.8 | 0.00 | 1.98 | 1.37 | 86 | 1012.0 |
| 20260507181504 | 18 | 314 | 1.6 | 8.0 | 0.00 | 1.98 | 1.37 | 86 | 1012.0 |
| 20260507181005 | 18 | 8 | 1.6 | 8.0 | 0.00 | 1.98 | 1.37 | 87 | 1012.0 |
| 20260507180505 | 18 | 337 | 3.2 | 8.0 | 0.00 | 1.98 | 1.37 | 87 | 1012.0 |
| 20260507180006 | 18 | 36 | 3.2 | 8.0 | 0.00 | 1.98 | 1.37 | 88 | 1011.8 |
| 20260507175506 | 18 | 304 | 3.2 | 9.7 | 0.00 | 1.98 | 1.37 | 88 | 1011.8 |
| 20260507175005 | 18 | 296 | 3.2 | 9.7 | 0.00 | 1.98 | 1.37 | 88 | 1011.8 |
| 20260507174505 | 18 | 3 | 4.8 | 12.9 | 0.00 | 1.98 | 1.37 | 88 | 1011.8 |
| 20260507174005 | 18 | 355 | 1.6 | 9.7 | 0.00 | 1.98 | 1.37 | 87 | 1011.8 |
| 20260507173006 | 19 | 300 | 3.2 | 14.5 | 0.00 | 1.98 | 1.37 | 86 | 1011.8 |
| 20260507172505 | 19 | 304 | 4.8 | 11.3 | 0.00 | 1.98 | 1.37 | 86 | 1011.8 |
| 20260507172005 | 19 | 296 | 3.2 | 14.5 | 0.00 | 1.98 | 1.37 | 86 | 1011.8 |
| 20260507171505 | 19 | 275 | 3.2 | 11.3 | 0.00 | 1.98 | 1.37 | 86 | 1011.8 |
| 20260507171005 | 19 | 295 | 4.8 | 9.7 | 0.00 | 1.98 | 1.37 | 86 | 1011.8 |
| 20260507170005 | 20 | 313 | 1.6 | 11.3 | 0.00 | 1.98 | 1.37 | 85 | 1011.8 |
| 20260507165506 | 20 | 299 | 4.8 | 11.3 | 0.00 | 1.98 | 1.37 | 85 | 1011.8 |
| 20260507165005 | 20 | 332 | 1.6 | 11.3 | 0.00 | 1.98 | 1.37 | 86 | 1011.7 |
| 20260507164505 | 20 | 291 | 1.6 | 11.3 | 0.00 | 1.98 | 1.37 | 86 | 1011.7 |
| 20260507164005 | 20 | 301 | 4.8 | 12.9 | 0.00 | 1.98 | 1.37 | 86 | 1011.7 |
| 20260507163505 | 20 | 22 | 1.6 | 4.8 | 0.00 | 1.98 | 1.37 | 85 | 1011.7 |
| 20260507162505 | 20 | 276 | 4.8 | 11.3 | 0.00 | 1.98 | 1.37 | 83 | 1011.0 |
| 20260507162005 | 20 | 263 | 3.2 | 9.7 | 0.00 | 1.98 | 1.37 | 85 | 1011.0 |
| 20260507161505 | 20 | 310 | 3.2 | 9.7 | 0.00 | 1.98 | 1.37 | 85 | 1011.0 |
| 20260507161005 | 20 | 291 | 4.8 | 11.3 | 0.00 | 1.98 | 1.37 | 86 | 1011.0 |
| 20260507160505 | 20 | 297 | 3.2 | 9.7 | 0.00 | 1.98 | 1.37 | 86 | 1011.0 |
| 20260507160005 | 20 | 286 | 1.6 | 11.3 | 0.00 | 1.98 | 1.37 | 86 | 1011.0 |
| 20260507155505 | 20 | 309 | 3.2 | 11.3 | 0.00 | 1.98 | 1.37 | 86 | 1011.0 |
| 20260507155005 | 20 | 296 | 8.0 | 12.9 | 0.00 | 1.98 | 1.37 | 85 | 1011.0 |
| 20260507154505 | 20 | 19 | 3.2 | 9.7 | 0.00 | 1.98 | 1.37 | 86 | 1011.0 |
| 20260507153006 | 20 | 298 | 6.4 | 11.3 | 0.00 | 1.98 | 1.37 | 85 | 1011.0 |
| 20260507152505 | 20 | 276 | 3.2 | 12.9 | 0.00 | 1.98 | 1.37 | 87 | 1011.0 |
| 20260507152005 | 20 | 302 | 3.2 | 12.9 | 0.00 | 1.98 | 1.37 | 89 | 1011.0 |
| 20260507151505 | 20 | 275 | 3.2 | 9.7 | 0.00 | 1.98 | 1.37 | 88 | 1011.0 |
| 20260507151006 | 20 | 345 | 3.2 | 4.8 | 0.00 | 1.98 | 1.37 | 87 | 1011.0 |
| 20260507150506 | 20 | 278 | 3.2 | 4.8 | 0.00 | 1.98 | 1.37 | 88 | 1011.0 |
| 20260507150006 | 20 | 7 | 3.2 | 8.0 | 0.00 | 1.98 | 1.37 | 90 | 1011.5 |
| 20260507145504 | 20 | 291 | 1.6 | 8.0 | 0.00 | 1.98 | 1.37 | 90 | 1011.5 |
| 20260507145005 | 20 | 269 | 3.2 | 9.7 | 0.00 | 1.98 | 1.37 | 90 | 1011.5 |
| 20260507144504 | 20 | 26 | 1.6 | 4.8 | 0.00 | 1.98 | 1.37 | 92 | 1011.5 |
| 20260507143005 | 18 | 297 | 1.6 | 8.0 | 0.00 | 1.98 | 1.37 | 93 | 1011.5 |
| 20260507142505 | 18 | 295 | 1.6 | 8.0 | 0.00 | 1.98 | 1.37 | 93 | 1011.5 |
| 20260507141505 | 18 | 262 | 1.6 | 4.8 | 0.00 | 1.98 | 1.37 | 94 | 1011.0 |
| 20260507141007 | 18 | 291 | 0.0 | 3.2 | 0.00 | 1.98 | 1.37 | 94 | 1011.0 |
| 20260507140505 | 18 | 21 | 0.0 | 1.6 | 0.00 | 1.98 | 1.37 | 94 | 1011.0 |
| 20260507135505 | 17 | 262 | 1.6 | 3.2 | 0.03 | 1.98 | 1.37 | 94 | 1011.0 |
| 20260507135005 | 17 | 284 | 1.6 | 4.8 | 0.03 | 1.98 | 1.37 | 94 | 1011.0 |
| 20260507134506 | 17 | 355 | 0.0 | 1.6 | 0.03 | 1.98 | 1.37 | 94 | 1011.0 |
| 20260507134006 | 17 | 355 | 1.6 | 3.2 | 0.03 | 1.98 | 1.37 | 94 | 1011.0 |
| 20260507133505 | 17 | 285 | 0.0 | 1.6 | 0.03 | 1.98 | 1.37 | 94 | 1011.0 |
| 20260507132504 | 17 | 280 | 0.0 | 1.6 | 0.03 | 1.98 | 1.37 | 94 | 1011.0 |
| 20260507132006 | 17 | 280 | 0.0 | 4.8 | 0.03 | 1.98 | 1.37 | 94 | 1011.0 |
| 20260507131505 | 17 | 287 | 0.0 | 4.8 | 0.03 | 1.98 | 1.37 | 94 | 1011.0 |
| 20260507130504 | 17 | 79 | 0.0 | 1.6 | 0.05 | 1.98 | 1.37 | 94 | 1010.7 |
| 20260507130005 | 17 | 79 | 0.0 | 3.2 | 0.05 | 1.98 | 1.37 | 94 | 1010.7 |
| 20260507125005 | 17 | 296 | 3.2 | 4.8 | 0.03 | 1.96 | 1.35 | 94 | 1010.7 |
| 20260507124504 | 17 | 27 | 3.2 | 4.8 | 0.05 | 1.96 | 1.35 | 94 | 1010.7 |
| 20260507123505 | 17 | 7 | 1.6 | 3.2 | 0.05 | 1.96 | 1.35 | 94 | 1010.7 |
| 20260507123005 | 17 | 37 | 1.6 | 3.2 | 0.05 | 1.96 | 1.35 | 94 | 1010.7 |
| 20260507122005 | 17 | 47 | 0.0 | 1.6 | 0.05 | 1.96 | 1.35 | 94 | 1010.7 |
| 20260507121006 | 17 | 15 | 3.2 | 11.3 | 0.10 | 1.96 | 1.35 | 94 | 1010.7 |
| 20260507120006 | 17 | 325 | 1.6 | 4.8 | 0.08 | 1.93 | 1.32 | 94 | 1009.4 |
| 20260507115506 | 17 | 17 | 1.6 | 4.8 | 0.08 | 1.93 | 1.32 | 94 | 1009.4 |
| 20260507115005 | 17 | 33 | 3.2 | 8.0 | 0.08 | 1.93 | 1.32 | 94 | 1009.4 |
| 20260507114505 | 17 | 348 | 3.2 | 8.0 | 0.08 | 1.93 | 1.32 | 94 | 1009.4 |
| 20260507114006 | 17 | 18 | 3.2 | 9.7 | 0.08 | 1.93 | 1.32 | 94 | 1009.4 |
| 20260507113505 | 17 | 302 | 4.8 | 12.9 | 0.05 | 1.91 | 1.30 | 94 | 1009.4 |
| 20260507113005 | 17 | 306 | 1.6 | 4.8 | 0.05 | 1.91 | 1.30 | 94 | 1008.8 |
| 20260507112504 | 17 | 330 | 4.8 | 9.7 | 0.08 | 1.91 | 1.30 | 94 | 1008.8 |
| 20260507112005 | 17 | 294 | 0.0 | 0.0 | 0.08 | 1.91 | 1.30 | 94 | 1008.8 |
| 20260507111005 | 17 | 299 | 0.0 | 0.0 | 0.05 | 1.88 | 1.27 | 94 | 1008.8 |
| 20260507110506 | 17 | 324 | 0.0 | 0.0 | 0.03 | 1.85 | 1.24 | 94 | 1008.8 |
| 20260507110006 | 17 | 346 | 0.0 | 0.0 | 0.03 | 1.85 | 1.24 | 94 | 1008.8 |
| 20260507105505 | 17 | 117 | 0.0 | 0.0 | 0.03 | 1.85 | 1.24 | 94 | 1008.8 |
| 20260507105006 | 17 | 117 | 0.0 | 0.0 | 0.03 | 1.85 | 1.24 | 94 | 1008.8 |
| 20260507104505 | 17 | 117 | 0.0 | 0.0 | 0.03 | 1.85 | 1.24 | 94 | 1008.8 |
| 20260507104006 | 17 | 117 | 0.0 | 0.0 | 0.03 | 1.85 | 1.24 | 94 | 1008.8 |
| 20260507103005 | 17 | 117 | 0.0 | 0.0 | 0.03 | 1.85 | 1.24 | 94 | 1008.8 |
| 20260507102505 | 17 | 117 | 0.0 | 0.0 | 0.03 | 1.85 | 1.24 | 94 | 1008.8 |
| 20260507102006 | 17 | 117 | 0.0 | 0.0 | 0.03 | 1.83 | 1.22 | 94 | 1008.8 |
| 20260507101507 | 17 | 117 | 0.0 | 0.0 | 0.03 | 1.83 | 1.22 | 94 | 1008.8 |
| 20260507101006 | 17 | 117 | 0.0 | 0.0 | 0.03 | 1.83 | 1.22 | 94 | 1008.8 |
| 20260507100505 | 17 | 117 | 0.0 | 0.0 | 0.03 | 1.83 | 1.22 | 94 | 1008.8 |
| 20260507095505 | 17 | 117 | 0.0 | 0.0 | 0.03 | 1.83 | 1.22 | 94 | 1008.8 |
| 20260507095006 | 17 | 117 | 0.0 | 0.0 | 0.03 | 1.83 | 1.22 | 94 | 1008.8 |
| 20260507094506 | 17 | 117 | 0.0 | 0.0 | 0.03 | 1.83 | 1.22 | 94 | 1008.8 |
| 20260507094005 | 17 | 117 | 0.0 | 0.0 | 0.03 | 1.83 | 1.22 | 94 | 1008.8 |
| 20260507093505 | 17 | 117 | 0.0 | 0.0 | 0.03 | 1.83 | 1.22 | 94 | 1008.8 |
| 20260507093006 | 17 | 117 | 0.0 | 0.0 | 0.03 | 1.83 | 1.22 | 94 | 1009.8 |
| 20260507092505 | 17 | 117 | 0.0 | 0.0 | 0.03 | 1.83 | 1.22 | 94 | 1009.8 |
| 20260507092005 | 17 | 117 | 0.0 | 0.0 | 0.03 | 1.83 | 1.22 | 94 | 1009.8 |
| 20260507090505 | 17 | 117 | 0.0 | 0.0 | 0.03 | 1.80 | 1.19 | 94 | 1009.8 |
| 20260507090005 | 17 | 117 | 0.0 | 0.0 | 0.03 | 1.80 | 1.19 | 94 | 1009.8 |
| 20260507084505 | 17 | 24 | 0.0 | 0.0 | 0.05 | 1.80 | 1.19 | 94 | 1009.8 |
| 20260507084006 | 17 | 24 | 0.0 | 0.0 | 0.05 | 1.80 | 1.19 | 94 | 1009.8 |
| 20260507083505 | 17 | 24 | 0.0 | 0.0 | 0.08 | 1.80 | 1.19 | 94 | 1009.8 |
| 20260507083006 | 17 | 24 | 0.0 | 0.0 | 0.08 | 1.80 | 1.19 | 94 | 1009.8 |
| 20260507082505 | 17 | 24 | 0.0 | 0.0 | 0.08 | 1.80 | 1.19 | 94 | 1009.8 |
| 20260507082005 | 17 | 24 | 0.0 | 0.0 | 0.08 | 1.80 | 1.19 | 94 | 1009.8 |
| 20260507081505 | 17 | 24 | 0.0 | 0.0 | 0.08 | 1.80 | 1.19 | 94 | 1009.8 |
| 20260507081005 | 17 | 24 | 0.0 | 0.0 | 0.08 | 1.80 | 1.19 | 94 | 1009.8 |
| 20260507080506 | 17 | 24 | 0.0 | 0.0 | 0.05 | 1.78 | 1.17 | 94 | 1009.8 |
| 20260507080005 | 17 | 24 | 0.0 | 0.0 | 0.05 | 1.78 | 1.17 | 94 | 1010.2 |
| 20260507075005 | 17 | 24 | 0.0 | 0.0 | 0.05 | 1.78 | 1.17 | 94 | 1010.5 |
| 20260507074505 | 17 | 24 | 0.0 | 1.6 | 0.05 | 1.78 | 1.17 | 94 | 1010.5 |
| 20260507074006 | 17 | 24 | 0.0 | 1.6 | 0.05 | 1.78 | 1.17 | 94 | 1010.5 |
| 20260507073505 | 17 | 24 | 1.6 | 4.8 | 0.03 | 1.75 | 1.14 | 94 | 1010.5 |
| 20260507073005 | 17 | 330 | 0.0 | 4.8 | 0.00 | 1.73 | 1.12 | 94 | 1010.5 |
| 20260507072506 | 17 | 13 | 1.6 | 4.8 | 0.00 | 1.73 | 1.12 | 94 | 1010.5 |
| 20260507072005 | 17 | 12 | 1.6 | 3.2 | 0.00 | 1.73 | 1.12 | 93 | 1010.5 |
| 20260507071506 | 17 | 5 | 0.0 | 1.6 | 0.00 | 1.73 | 1.12 | 94 | 1010.5 |
| 20260507071005 | 17 | 299 | 0.0 | 1.6 | 0.00 | 1.73 | 1.12 | 93 | 1010.5 |
| 20260507070505 | 17 | 294 | 0.0 | 3.2 | 0.03 | 1.73 | 1.12 | 93 | 1010.5 |
| 20260507065506 | 17 | 94 | 0.0 | 3.2 | 0.08 | 1.73 | 1.12 | 93 | 1010.5 |
| 20260507065005 | 17 | 258 | 3.2 | 8.0 | 0.10 | 1.73 | 1.12 | 93 | 1010.5 |
| 20260507064005 | 17 | 22 | 1.6 | 4.8 | 0.18 | 1.73 | 1.12 | 93 | 1010.5 |
| 20260507063506 | 17 | 24 | 1.6 | 4.8 | 0.23 | 1.73 | 1.12 | 93 | 1010.5 |
| 20260507063006 | 17 | 28 | 0.0 | 3.2 | 0.28 | 1.73 | 1.12 | 93 | 1010.5 |
| 20260507062505 | 17 | 18 | 0.0 | 0.0 | 0.33 | 1.73 | 1.12 | 93 | 1010.5 |
| 20260507062005 | 17 | 16 | 0.0 | 0.0 | 0.36 | 1.73 | 1.12 | 93 | 1010.5 |
| 20260507061005 | 17 | 16 | 1.6 | 4.8 | 0.41 | 1.73 | 1.12 | 93 | 1011.0 |
| 20260507060505 | 17 | 36 | 0.0 | 1.6 | 0.46 | 1.73 | 1.12 | 93 | 1011.0 |
| 20260507060005 | 17 | 36 | 0.0 | 1.6 | 0.48 | 1.73 | 1.12 | 93 | 1012.0 |
| 20260507055505 | 17 | 36 | 0.0 | 1.6 | 0.48 | 1.70 | 1.09 | 94 | 1012.0 |
| 20260507055005 | 17 | 36 | 1.6 | 3.2 | 0.51 | 1.68 | 1.07 | 94 | 1012.0 |
| 20260507054505 | 17 | 17 | 0.0 | 3.2 | 0.51 | 1.63 | 1.02 | 93 | 1012.0 |
| 20260507054005 | 17 | 16 | 1.6 | 4.8 | 0.48 | 1.57 | 0.97 | 93 | 1012.0 |
| 20260507053505 | 17 | 15 | 1.6 | 4.8 | 0.51 | 1.55 | 0.94 | 93 | 1012.0 |
| 20260507053005 | 17 | 132 | 0.0 | 1.6 | 0.51 | 1.52 | 0.91 | 93 | 1012.0 |
| 20260507052506 | 17 | 132 | 0.0 | 3.2 | 0.61 | 1.47 | 0.86 | 93 | 1012.0 |
| 20260507052006 | 17 | 81 | 0.0 | 3.2 | 0.74 | 1.42 | 0.81 | 93 | 1012.0 |
| 20260507051506 | 17 | 13 | 1.6 | 3.2 | 0.74 | 1.37 | 0.76 | 93 | 1012.0 |
| 20260507051005 | 17 | 99 | 0.0 | 0.0 | 0.71 | 1.35 | 0.74 | 93 | 1012.6 |
| 20260507050505 | 17 | 99 | 0.0 | 0.0 | 0.71 | 1.32 | 0.71 | 93 | 1012.6 |
| 20260507050005 | 17 | 99 | 0.0 | 1.6 | 0.10 | 1.30 | 0.69 | 93 | 1012.6 |
| 20260507045505 | 17 | 12 | 0.0 | 3.2 | 0.05 | 1.24 | 0.64 | 93 | 1012.6 |
| 20260507045005 | 17 | 12 | 1.6 | 4.8 | 0.03 | 1.22 | 0.61 | 93 | 1012.6 |
| 20260507044504 | 17 | 121 | 0.0 | 4.8 | 0.58 | 1.17 | 0.56 | 93 | 1012.6 |
| 20260507043506 | 17 | 273 | 0.0 | 3.2 | 0.48 | 1.07 | 0.46 | 93 | 1012.6 |
| 20260507043006 | 17 | 34 | 1.6 | 3.2 | 0.46 | 1.04 | 0.43 | 93 | 1011.4 |
| 20260507042506 | 18 | 60 | 3.2 | 16.1 | 0.41 | 0.99 | 0.38 | 93 | 1011.4 |
| 20260507042006 | 18 | 324 | 3.2 | 11.3 | 0.28 | 0.84 | 0.23 | 93 | 1011.4 |
| 20260507041505 | 18 | 282 | 3.2 | 8.0 | 0.10 | 0.66 | 0.05 | 93 | 1011.4 |
| 20260507041005 | 18 | 346 | 3.2 | 4.8 | 0.08 | 0.64 | 0.03 | 93 | 1011.4 |
| 20260507040505 | 18 | 18 | 0.0 | 1.6 | 0.10 | 0.61 | 0.00 | 93 | 1011.4 |
| 20260507040005 | 18 | 232 | 0.0 | 3.2 | 0.15 | 0.61 | 0.00 | 93 | 1011.4 |
| 20260507035505 | 18 | 269 | 0.0 | 4.8 | 0.18 | 0.58 | 0.58 | 93 | 1011.4 |
| 20260507035005 | 18 | 11 | 1.6 | 4.8 | 0.18 | 0.58 | 0.58 | 93 | 1011.4 |
| 20260507034505 | 18 | 24 | 3.2 | 4.8 | 0.18 | 0.58 | 0.58 | 93 | 1011.4 |
| 20260507034005 | 18 | 14 | 1.6 | 3.2 | 0.18 | 0.58 | 0.58 | 93 | 1011.4 |
| 20260507033505 | 18 | 15 | 1.6 | 4.8 | 0.18 | 0.58 | 0.58 | 93 | 1011.4 |
| 20260507033007 | 18 | 44 | 0.0 | 1.6 | 0.18 | 0.58 | 0.58 | 93 | 1011.4 |
| 20260507032505 | 18 | 28 | 1.6 | 3.2 | 0.18 | 0.58 | 0.58 | 93 | 1011.4 |
| 20260507032005 | 18 | 28 | 0.0 | 3.2 | 0.18 | 0.58 | 0.58 | 93 | 1011.4 |
| 20260507031505 | 18 | 21 | 1.6 | 4.8 | 0.15 | 0.56 | 0.56 | 93 | 1011.4 |
| 20260507031005 | 18 | 113 | 4.8 | 12.9 | 0.15 | 0.56 | 0.56 | 93 | 1011.4 |
| 20260507030005 | 19 | 35 | 1.6 | 9.7 | 0.15 | 0.53 | 0.53 | 92 | 1011.4 |
| 20260507025504 | 20 | 26 | 4.8 | 11.3 | 0.13 | 0.51 | 0.51 | 93 | 1011.4 |
| 20260507025005 | 21 | 3 | 3.2 | 14.5 | 0.05 | 0.43 | 0.43 | 93 | 1011.4 |
| 20260507024505 | 21 | 268 | 0.0 | 0.0 | 0.03 | 0.41 | 0.41 | 93 | 1011.4 |
| 20260507024006 | 21 | 265 | 0.0 | 0.0 | 0.03 | 0.41 | 0.41 | 93 | 1011.4 |
| 20260507023505 | 21 | 251 | 0.0 | 0.0 | 0.03 | 0.41 | 0.41 | 93 | 1011.4 |
| 20260507022505 | 21 | 260 | 0.0 | 0.0 | 0.03 | 0.41 | 0.41 | 93 | 1011.4 |
| 20260507022005 | 21 | 260 | 0.0 | 0.0 | 0.03 | 0.41 | 0.41 | 93 | 1011.4 |
| 20260507021505 | 21 | 260 | 0.0 | 0.0 | 0.03 | 0.41 | 0.41 | 93 | 1011.4 |
| 20260507021006 | 21 | 260 | 0.0 | 0.0 | 0.03 | 0.41 | 0.41 | 93 | 1011.4 |
| 20260507020505 | 21 | 253 | 0.0 | 0.0 | 0.03 | 0.41 | 0.41 | 93 | 1011.4 |
| 20260507020005 | 21 | 162 | 0.0 | 0.0 | 0.03 | 0.41 | 0.41 | 93 | 1011.4 |
| 20260507015005 | 21 | 186 | 0.0 | 0.0 | 0.00 | 0.38 | 0.38 | 93 | 1011.4 |
| 20260507014005 | 21 | 171 | 0.0 | 0.0 | 0.00 | 0.38 | 0.38 | 93 | 1011.4 |
| 20260507013505 | 21 | 171 | 0.0 | 0.0 | 0.00 | 0.38 | 0.38 | 93 | 1011.4 |
| 20260507012506 | 21 | 171 | 0.0 | 0.0 | 0.00 | 0.38 | 0.38 | 93 | 1011.4 |
| 20260507012005 | 21 | 171 | 0.0 | 0.0 | 0.00 | 0.38 | 0.38 | 93 | 1011.4 |
| 20260507010506 | 21 | 171 | 0.0 | 0.0 | 0.03 | 0.38 | 0.38 | 93 | 1011.4 |
| 20260507010005 | 21 | 171 | 0.0 | 0.0 | 0.03 | 0.38 | 0.38 | 92 | 1011.4 |
| 20260507005505 | 21 | 171 | 0.0 | 0.0 | 0.03 | 0.38 | 0.38 | 92 | 1011.4 |
| 20260507004505 | 21 | 144 | 0.0 | 1.6 | 0.08 | 0.38 | 0.38 | 92 | 1011.4 |
| 20260507004005 | 21 | 118 | 0.0 | 1.6 | 0.08 | 0.38 | 0.38 | 92 | 1011.4 |
| 20260507003505 | 21 | 118 | 0.0 | 1.6 | 0.08 | 0.38 | 0.38 | 93 | 1011.4 |
| 20260507003006 | 21 | 118 | 0.0 | 1.6 | 0.08 | 0.38 | 0.38 | 92 | 1011.7 |
| 20260507002505 | 21 | 202 | 0.0 | 0.0 | 0.08 | 0.38 | 0.38 | 92 | 1011.7 |
| 20260507002005 | 21 | 202 | 0.0 | 3.2 | 0.08 | 0.38 | 0.38 | 92 | 1011.7 |
| 20260507001505 | 21 | 202 | 0.0 | 3.2 | 0.08 | 0.38 | 0.38 | 92 | 1011.7 |
| 20260507001006 | 21 | 207 | 0.0 | 4.8 | 0.05 | 0.36 | 0.36 | 92 | 1011.7 |
| 20260507000505 | 21 | 237 | 1.6 | 4.8 | 0.05 | 0.36 | 0.36 | 92 | 1011.7 |
| 20260507000005 | 21 | 200 | 0.0 | 1.6 | 0.05 | 0.36 | 0.36 | 92 | 1011.7 |
| 20260506235505 | 21 | 199 | 0.0 | 1.6 | 0.05 | 0.36 | 0.36 | 92 | 1011.7 |
| 20260506235007 | 21 | 199 | 0.0 | 1.6 | 0.05 | 0.36 | 0.36 | 92 | 1011.7 |
| 20260506234505 | 21 | 199 | 0.0 | 1.6 | 0.08 | 0.33 | 0.33 | 92 | 1011.7 |
| 20260506234005 | 21 | 199 | 0.0 | 1.6 | 0.15 | 0.30 | 0.30 | 92 | 1011.0 |
| 20260506233005 | 21 | 199 | 0.0 | 1.6 | 0.30 | 0.30 | 0.30 | 92 | 1011.0 |